FW1711 Weather Reports


time (UTC)temp
C
wind
direction
speed
KPH
gust
KPH
rain 1hr
cm
rain 24hr
cm
rain mn
cm
humidity
%
barometer
mb
20260507070026 11 109 0.0 0.0 0.13 0.71 0.71 88 993.9
20260507064523 11 109 0.0 0.0 0.18 0.71 0.71 88 993.8
20260507063121 11 109 0.0 0.0 0.23 0.71 0.71 88 993.6
20260507061520 11 109 0.0 0.0 0.30 0.69 0.69 88 993.5
20260507060032 11 109 0.0 0.0 0.33 0.61 0.61 87 993.4
20260507054518 11 109 0.0 0.0 0.28 0.56 0.56 87 993.2
20260507053015 11 109 0.0 0.0 0.18 0.46 0.46 87 993.0
20260507051514 11 109 0.0 0.0 0.10 0.38 0.38 87 992.9
20260507050034 11 109 0.0 0.0 0.03 0.30 0.30 87 992.7
20260507044518 11 109 0.0 0.0 0.03 0.28 0.28 87 992.7
20260507043008 11 109 0.0 3.2 0.05 0.28 0.28 87 992.3
20260507041508 11 113 0.0 1.6 0.05 0.28 0.28 87 992.2
20260507040005 11 113 0.0 1.6 0.05 0.28 0.28 86 992.1
20260507034506 11 114 0.0 0.0 0.05 0.25 0.25 86 992.1
20260507033003 11 114 0.0 0.0 0.05 0.23 0.23 86 992.1
20260507031505 11 113 0.0 3.2 0.05 0.23 0.23 86 992.1
20260507024700 11 140 0.0 0.0 0.00 0.20 0.20 86 991.9
20260507023058 11 140 0.0 0.0 0.00 0.20 0.20 86 991.9
20260507021606 12 140 0.0 0.0 0.00 0.20 0.20 86 991.8
20260507020058 12 140 0.0 0.0 0.00 0.20 0.20 85 991.7
20260507014558 12 140 0.0 0.0 0.00 0.20 0.20 85 991.7
20260507013053 11 140 0.0 0.0 0.00 0.20 0.20 84 991.5
20260507011556 11 140 0.0 0.0 0.00 0.20 0.20 84 991.4
20260507010052 11 140 0.0 0.0 0.00 0.20 0.20 84 991.3
20260507004551 12 140 0.0 0.0 0.03 0.20 0.20 84 991.1
20260507003050 12 140 0.0 0.0 0.05 0.20 0.20 83 991.2
20260507001550 12 140 0.0 0.0 0.10 0.20 0.20 83 991.0
20260507000048 12 140 0.0 0.0 0.13 0.20 0.20 82 991.2
20260506234603 12 140 0.0 1.6 0.15 0.28 0.18 82 991.1
20260506233045 12 140 0.0 3.2 0.15 0.25 0.15 82 991.1
20260506231543 12 113 0.0 1.6 0.10 0.20 0.10 81 990.9
20260506230041 13 113 0.0 0.0 0.08 0.18 0.08 81 991.1
20260506224544 13 173 0.0 4.8 0.03 0.36 0.03 80 991.3
20260506223040 13 106 0.0 3.2 0.00 0.33 0.00 78 991.4
20260506221534 13 115 0.0 0.0 0.00 0.33 0.00 79 991.5
20260506220036 13 115 0.0 0.0 0.00 0.33 0.00 78 990.7
20260506214532 14 115 0.0 0.0 0.00 1.30 0.33 78 990.7
20260506213032 14 115 0.0 0.0 0.00 1.30 0.33 78 990.6
20260506211529 14 115 0.0 0.0 0.00 1.30 0.33 77 990.3
20260506210034 14 115 0.0 0.0 0.00 1.30 0.33 76 990.4
20260506204544 15 115 0.0 0.0 0.00 2.03 0.33 76 989.9
20260506203029 15 115 0.0 0.0 0.00 2.03 0.33 76 989.9
20260506201530 15 115 0.0 0.0 0.00 2.03 0.33 75 990.0
20260506200024 15 115 0.0 0.0 0.00 2.03 0.33 74 990.1
20260506194524 16 115 0.0 0.0 0.00 2.11 0.33 73 990.1
20260506193023 16 115 0.0 0.0 0.00 2.11 0.33 72 990.0
20260506191524 16 115 0.0 0.0 0.00 2.11 0.33 72 989.7
20260506190022 17 115 0.0 0.0 0.00 2.11 0.33 71 989.3
20260506184521 17 115 0.0 0.0 0.00 2.11 0.33 70 989.3
20260506183021 17 115 0.0 4.8 0.00 2.11 0.33 69 988.9
20260506181526 18 129 0.0 0.0 0.00 2.11 0.33 68 988.8
20260506180020 18 130 0.0 3.2 0.00 2.11 0.33 67 988.8
20260506174519 19 49 0.0 1.6 0.00 2.11 0.33 66 988.7
20260506173019 19 169 0.0 1.6 0.00 2.11 0.33 66 988.4
20260506171532 20 169 0.0 0.0 0.00 2.11 0.33 64 988.3
20260506170018 20 169 0.0 0.0 0.00 2.11 0.33 64 987.9
20260506164520 20 169 0.0 1.6 0.00 2.11 0.33 63 988.1
20260506163018 20 169 0.0 1.6 0.00 2.11 0.33 63 987.9
20260506161518 20 193 0.0 1.6 0.00 2.11 0.33 62 988.2
20260506160025 20 229 0.0 4.8 0.00 2.11 0.33 65 988.5
20260506154514 20 108 0.0 0.0 0.00 2.11 0.33 66 988.6
20260506153114 20 108 0.0 0.0 0.00 2.11 0.33 65 988.7
20260506151520 20 159 0.0 3.2 0.00 2.11 0.33 64 988.7
20260506150024 20 105 0.0 3.2 0.00 2.11 0.33 62 988.7
20260506144513 20 86 0.0 1.6 0.00 2.11 0.33 59 988.7
20260506143033 21 86 0.0 1.6 0.00 2.11 0.33 57 988.7
20260506141511 21 86 0.0 3.2 0.00 2.11 0.33 54 988.7
20260506140013 21 86 0.0 1.6 0.00 2.11 0.33 58 988.8
20260506134509 21 86 0.0 3.2 0.00 2.11 0.33 57 988.9
20260506133011 21 136 0.0 6.4 0.00 2.11 0.33 56 989.0
20260506131514 21 225 1.6 4.8 0.00 2.11 0.33 57 989.0
20260506130008 21 330 0.0 12.9 0.00 2.11 0.33 58 989.3
20260506124507 21 309 0.0 3.2 0.00 2.11 0.33 56 989.4
20260506123007 21 318 0.0 6.4 0.00 2.11 0.33 56 989.4
20260506121507 21 317 0.0 3.2 0.00 2.11 0.33 56 989.4
20260506120006 22 336 1.6 9.7 0.00 2.11 0.33 51 989.4
20260506114503 21 11 0.0 8.0 0.00 2.11 0.33 54 989.2
20260506113002 21 308 3.2 8.0 0.00 2.11 0.33 57 989.4
20260506111502 21 328 0.0 6.4 0.00 2.11 0.33 56 989.4
20260506110002 21 316 3.2 16.1 0.00 2.11 0.33 54 989.5
20260506104617 21 311 1.6 9.7 0.00 2.11 0.33 55 989.6
20260506103057 21 310 1.6 8.0 0.00 2.11 0.33 62 989.5
20260506101602 21 341 0.0 3.2 0.00 2.11 0.33 60 989.4
20260506100053 20 327 1.6 8.0 0.00 2.11 0.33 60 989.5
20260506094556 20 311 1.6 12.9 0.00 2.11 0.33 66 989.4
20260506093053 18 355 1.6 9.7 0.00 2.11 0.33 66 989.3
20260506091546 18 15 3.2 9.7 0.00 2.11 0.33 66 989.2
20260506090045 18 314 3.2 9.7 0.00 2.11 0.33 67 989.1
20260506084545 18 339 0.0 16.1 0.00 2.11 0.33 72 988.9
20260506083041 18 229 0.0 14.5 0.00 2.11 0.33 72 988.9
20260506081539 18 342 1.6 12.9 0.00 2.11 0.33 71 988.8
20260506073037 17 333 0.0 8.0 0.00 2.11 0.33 79 988.4
20260506071530 17 335 3.2 12.9 0.00 2.11 0.33 80 988.7